Regional Weather Roundup
Issued by NWS Newport/Morehead, NC

Current Version | Previous Version | Text Only | Print | Product List | Glossary On
Versions: 1 2 3 4 5 6 7 8 9 10 11 12 13 14 15 16 17 18 19 20 21 22 23 24 25 26 27 28 29 30 31 32 33 34 35 36 37 38 39 40 41 42 43 44 45 46 47 48 49 50
000
ASUS42 KMHX 250210
RWRMHX
WEATHER ROUNDUP FOR EASTERN NORTH CAROLINA
NATIONAL WEATHER SERVICE NEWPORT/MOREHEAD CITY NC
1000 PM EDT FRI OCT 24 2014

NOTE: "FAIR" INDICATES FEW OR NO CLOUDS BELOW 12,000 FEET
WITH NO SIGNIFICANT WEATHER AND/OR OBSTRUCTIONS TO VISIBILITY

NCZ015>017-031-032-045>047-102-103-250300-
NORTH COAST

CITY           SKY/WX    TMP DP  RH WIND       PRES   REMARKS
EDENTON        CLEAR     52  48  88 CALM      29.97S
ELIZABETH CITY CLEAR     51  44  77 W6        29.97R
KITTY HAWK     CLEAR     59  53  81 NW3       29.95R
MANTEO         CLEAR     59  53  81 W3        29.97R

$$

NCZ045>047-081-094-103-104-250300-
CENTRAL COAST

CITY           SKY/WX    TMP DP  RH WIND       PRES   REMARKS
FRISCO         CLEAR     60  56  86 NW5       29.97R
SWANQUARTER      N/A     57 N/A N/A W3        29.94S

$$

NCZ095-097-098-100-101-250300-
SOUTHERN COAST

CITY           SKY/WX    TMP DP  RH WIND       PRES   REMARKS
BEAUFORT       CLEAR     60  51  72 W5        29.99R
CEDAR ISLAND     N/A     61 N/A N/A SW3       30.00S
JACKSONVILLE   CLEAR     52  51  97 CALM      29.99R
PINEY ISLAND   CLEAR     61  53  75 W7        29.98R
WILMINGTON     CLEAR     54  51  90 CALM      30.00R


$$

NCZ011>013-027>030-043-044-078>080-089-090>093-098-250300-
COASTAL PLAIN

CITY           SKY/WX    TMP DP  RH WIND       PRES   REMARKS
AHOSKIE        CLEAR     47  46  95 CALM      29.98R
CLINTON        PTCLDY    51  51  99 CALM      30.01R
ELIZABETHTOWN  PTCLDY    54  50  86 CALM      29.99S
GOLDSBORO      CLEAR     54  53  97 CALM      29.98R
GREENVILLE     CLEAR     50  50 100 CALM      30.00R FOG
HAVELOCK       CLEAR     54  50  86 CALM      30.00R
KENANSVILLE    CLEAR     47  46  96 CALM      30.01R
KINSTON        NOT AVBL
NEW BERN       CLEAR     55  49  80 CALM      30.00R
RICHLANDS      CLEAR     48  45  87 CALM      30.00R
ROCKY MOUNT    CLEAR     49  46  90 CALM      29.99R
WASHINGTON     CLEAR     51  49  92 CALM      29.98S
WHITEVILLE     MOCLDY    54  51  90 CALM      29.99R

$$

AMZ130-135-150-152-154-156-158-170-250-252-270-ANZ085-086-088-633-658-670-250300-
MARINE OBSERVATIONS

STATION/POSITION TIME  TEMP    WIND        PRES    WAVE   SWELL
                       AIR SEA DIR/SP/G            HT/PER HT/PER
                 (UTC) (F)     (DEG/KT/KT) (MB)    (FT/S) (FT/S)
CHESAPEAKE LIGHT 0100   65     310/ 18/ 19 1014.3
64 E VA BEACH    0200   66 66  320/ 16/ 19 1012.9    4/ 5   3/ 9
DUCK             0200   60 66  290/  7/  8 1013.7
2 E DUCK         0200                        N/A     3/ 6   2/11
10 NE DUCK       0200      67                N/A     3/11   2/11
OREGON INLET     0200   60 64  280/  6/  8 1014.4
13E OREGON INLT  0200      69                N/A     5/11   2/11
HATTERAS CG      0200      65  320/  9/ 11 1015.1
DIAMOND BUOY     0200   66     310/ 14/ 16 1014.5    4/ 9   3/ 9
17 S OCRACOKE    0100          VRB 12/ 16  1014.6
CAPE LOOKOUT     0100   67     300/ 11/ 12 1014.8
BEAUFORT LAB     0200   63 68  300/  4/  5 1014.5
30 SE NEW RIVER  0200   68 75  310/ 10/ 12 1015.0    2/11   2/11
5 SE WRIGHTSVLE  0200   63 72  290/  8/  8   N/A
225 S CAPE HAT   0106   72 77   10/  6/ 10 1015.0    5/ 9   5/ 9
41 SE CHARLESTON 0200   69 78  340/  6/  8 1015.4    3/10   3/10

$$



USA.gov is the U.S. government's official web portal to all federal, state and local government web resources and services.